1487358000.87,58775,13.19,73226.0,-8.73,-10.97,-11.07,0,*5C
1487358002.11,58776,13.19,73224.0,-8.73,-11.19,-11.19,0,*57
1487358003.37,58777,13.19,73222.3,-8.73,-11.11,-11.07,0,*51
1487358004.67,58778,13.19,73222.5,-8.73,-11.07,-11.07,0,*59
1487358005.96,58779,13.19,73218.3,-8.73,-11.07,-11.07,0,*58
1487358007.23,58780,13.19,73218.8,-8.73,-11.07,-10.93,0,*52
1487358008.5,58781,13.19,73218.8,-8.73,-11.07,-10.97,0,*57
1487358009.7,58782,13.25,73224.5,-8.75,-10.93,-10.85,0,*5D
1487358010.91,58783,13.19,73216.8,-8.75,-10.89,-10.85,0,*57
1487358012.2,58784,13.19,73212.8,-8.73,-10.79,-10.79,0,*5A
1487358013.46,58785,13.19,73204.8,-8.75,-10.79,-10.79,0,*5D
1487358014.72,58786,13.19,73200.8,-8.75,-10.79,-10.79,0,*5E
1487358016.0,58787,13.19,73198.0,-8.75,-10.67,-10.67,0,*5F
1487358017.23,58788,13.19,73194.0,-8.75,-10.57,-10.71,0,*54
1487358018.5,58789,13.19,73204.3,-8.75,-10.67,-10.71,0,*56
1487358019.74,58790,13.25,73202.0,-8.75,-10.57,-10.79,0,*55
1487358020.98,58791,13.19,73212.0,-8.75,-10.71,-10.97,0,*50
1487358022.2,58792,13.19,73224.8,-8.75,-10.93,-10.97,0,*5F
1487358023.41,58793,13.19,73224.5,-8.75,-10.85,-10.97,0,*59
1487358024.62,58794,13.19,73222.0,-8.75,-11.11,-11.23,0,*5C
1487358025.83,58795,13.19,73222.0,-8.75,-11.11,-11.19,0,*54
1487358027.07,58796,13.19,73222.5,-8.75,-10.97,-11.07,0,*57
1487358028.31,58797,13.19,73220.3,-8.75,-11.07,-11.23,0,*58
1487358029.58,58798,13.19,73226.5,-8.73,-11.07,-11.19,0,*58
1487358030.84,58799,13.19,73228.3,-8.73,-11.07,-11.11,0,*51
1487358032.13,58800,13.19,73210.3,-8.73,-11.07,-11.07,0,*59
1487358033.37,58801,13.19,73204.5,-8.73,-10.97,-10.85,0,*5B
1487358034.61,58802,13.19,73206.0,-8.73,-10.93,-10.93,0,*5B
1487358035.84,58803,13.19,73198.8,-8.73,-10.85,-10.85,0,*5A
1487358037.09,58804,13.19,73202.8,-8.73,-10.97,-10.93,0,*59
1487358038.3,58805,13.19,73220.8,-8.75,-10.85,-10.93,0,*5D
1487358039.54,58806,13.25,73226.8,-8.75,-10.71,-10.93,0,*55
1487358040.8,58807,13.19,73216.3,-8.73,-10.79,-10.97,0,*5E
1487358042.01,58808,13.25,73224.5,-8.75,-10.85,-11.11,0,*5B
1487358043.22,58809,13.25,73230.0,-8.75,-10.85,-11.23,0,*5B
1487358044.43,58810,13.19,73234.3,-8.75,-10.97,-11.23,0,*50
1487358045.7,58811,13.19,73224.8,-8.77,-11.15,-11.29,0,*52
1487358046.91,58812,13.19,73224.3,-8.75,-11.11,-11.23,0,*5D
1487358048.15,58813,13.25,73232.0,-8.75,-11.07,-11.23,0,*5B
1487358049.41,58814,13.19,73226.3,-8.77,-11.23,-11.29,0,*52
1487358050.65,58815,13.19,73226.0,-8.75,-11.23,-11.33,0,*5A
1487358051.91,58816,13.19,73220.0,-8.75,-11.33,-11.37,0,*5C
1487358053.17,58817,13.19,73224.3,-8.77,-11.19,-11.29,0,*58
1487358054.38,58818,13.19,73226.3,-8.75,-11.11,-11.19,0,*5E
1487358055.62,58819,13.19,73222.8,-8.75,-10.97,-11.07,0,*5F
1487358056.83,58820,13.19,73224.5,-8.75,-10.93,-11.11,0,*56
1487358058.04,58821,13.25,73226.0,-8.75,-11.23,-11.23,0,*5C
1487358059.29,58822,13.19,73222.8,-8.75,-10.93,-11.07,0,*53
1487358060.5,58823,13.19,73216.8,-8.75,-10.85,-10.93,0,*59
1487358061.73,58824,13.19,73214.5,-8.75,-10.79,-10.85,0,*5A
1487358062.99,58825,13.19,73218.5,-8.75,-10.71,-10.79,0,*50
1487358064.26,58826,13.19,73220.0,-8.75,-10.71,-10.79,0,*53
1487358065.53,58827,13.19,73216.5,-8.75,-10.67,-10.67,0,*5A
1487358066.79,58828,13.25,73232.0,-8.73,-10.71,-10.85,0,*58
1487358068.05,58829,13.19,73234.0,-8.73,-10.67,-10.85,0,*5E
1487358069.31,58830,13.19,73226.3,-8.73,-10.79,-11.11,0,*55
1487358070.55,58831,13.19,73226.5,-8.73,-10.93,-11.19,0,*58
1487358071.77,58832,13.19,73238.8,-8.75,-10.97,-11.23,0,*50
1487358073.0,58833,13.25,73236.0,-8.75,-11.23,-11.33,0,*5E
1487358074.22,58834,13.19,73228.3,-8.75,-11.19,-11.33,0,*50
1487358075.43,58835,13.19,73232.5,-8.75,-11.19,-11.19,0,*59
1487358076.64,58836,13.19,73234.0,-8.75,-10.97,-11.19,0,*5D
1487358077.87,58837,13.19,73230.5,-8.75,-11.19,-11.33,0,*53
1487358079.16,58838,13.19,73234.5,-8.77,-11.29,-11.37,0,*59
1487358080.42,58839,13.19,73232.5,-8.75,-11.29,-11.33,0,*5E
1487358081.66,58840,13.25,73232.5,-8.75,-11.23,-11.07,0,*5D
1487358082.87,58841,13.19,73226.0,-8.75,-11.19,-10.93,0,*59
1487358084.11,58842,13.19,73216.0,-8.75,-10.85,-10.79,0,*5A
1487358085.4,58843,13.19,73200.0,-8.77,-10.71,-10.75,0,*5E
1487358086.63,58844,13.19,73206.3,-8.75,-10.79,-10.85,0,*5C
1487358087.88,58845,13.19,73200.8,-8.75,-10.67,-10.93,0,*55
1487358089.12,58846,13.19,73226.3,-8.75,-10.71,-10.97,0,*55
1487358090.33,58847,13.25,73224.5,-8.75,-10.85,-10.97,0,*5F
1487358091.58,58848,13.25,73214.8,-8.77,-10.93,-10.97,0,*55
1487358092.79,58849,13.19,73212.8,-8.75,-10.85,-10.97,0,*51
1487358094.01,58850,13.25,73224.3,-8.75,-10.85,-10.97,0,*59
1487358095.24,58851,13.19,73218.8,-8.75,-11.07,-11.23,0,*5D
1487358096.45,58852,13.19,73216.8,-8.75,-11.11,-11.19,0,*50
1487358097.66,58853,13.19,73216.3,-8.75,-11.11,-11.11,0,*59
1487358098.87,58854,13.19,73214.5,-8.75,-10.93,-11.19,0,*5D
1487358100.09,58855,13.19,73222.3,-8.75,-10.97,-11.19,0,*58
1487358101.3,58856,13.19,73222.0,-8.75,-10.97,-11.19,0,*5B
1487358102.54,58857,13.19,73220.8,-8.73,-10.97,-11.11,0,*54
1487358103.78,58858,13.19,73222.3,-8.75,-11.07,-11.23,0,*54
1487358104.99,58859,13.19,73226.3,-8.75,-10.93,-11.11,0,*58
1487358106.23,58860,13.19,73230.3,-8.75,-10.85,-11.07,0,*52
1487358107.44,58861,13.19,73230.5,-8.75,-10.89,-11.15,0,*5C
1487358108.73,58862,13.19,73226.0,-8.77,-11.33,-11.51,0,*5D
1487358109.94,58863,13.19,73216.3,-8.75,-11.11,-11.19,0,*52
1487358111.18,58864,13.19,73222.5,-8.75,-10.97,-11.07,0,*55
1487358112.4,58865,13.19,73224.8,-8.75,-10.97,-11.11,0,*53
1487358113.64,58866,13.19,73226.5,-8.75,-10.97,-11.07,0,*57
1487358114.88,58867,13.19,73222.0,-8.75,-10.85,-11.07,0,*55
1487358116.08,58868,13.19,73218.0,-8.75,-10.85,-11.11,0,*5D
1487358117.3,58869,13.19,73232.8,-8.75,-10.97,-11.11,0,*5F
1487358118.52,58870,13.25,73226.8,-8.75,-11.19,-11.33,0,*50
1487358119.76,58871,13.19,73222.5,-8.75,-11.07,-11.19,0,*56
1487358121.0,58872,13.19,73222.0,-8.75,-10.93,-11.07,0,*56
1487358122.21,58873,13.19,73226.0,-8.75,-10.93,-11.11,0,*50
1487358123.43,58874,13.19,73228.3,-8.75,-10.97,-11.19,0,*5B
1487358124.64,58875,13.19,73220.8,-8.75,-11.11,-11.23,0,*5C
1487358125.85,58876,13.19,73226.5,-8.75,-11.11,-11.19,0,*56
1487358127.05,58877,13.19,73218.8,-8.75,-11.11,-11.19,0,*57
1487358128.26,58878,13.19,73216.8,-8.75,-11.19,-11.23,0,*59
1487358129.47,58879,13.19,73224.8,-8.75,-11.19,-11.23,0,*58
1487358130.7,58880,13.19,73220.5,-8.75,-11.07,-11.11,0,*50
1487358131.92,58881,13.19,73216.0,-8.75,-10.97,-11.11,0,*59
1487358133.13,58882,13.19,73220.3,-8.75,-10.93,-11.11,0,*5E
1487358134.34,58883,13.19,73220.0,-8.75,-10.93,-11.11,0,*5F
1487358135.56,58884,13.19,73224.5,-8.75,-10.97,-11.11,0,*5C
1487358136.77,58885,13.19,73224.3,-8.75,-10.97,-11.23,0,*5C
1487358137.98,58886,13.19,73226.5,-8.75,-10.97,-11.19,0,*56
1487358139.2,58887,13.25,73230.8,-8.75,-10.97,-11.11,0,*5F
1487358140.44,58888,13.19,73226.8,-8.75,-10.93,-11.07,0,*53
1487358141.65,58889,13.19,73224.5,-8.75,-10.93,-11.11,0,*55
1487358142.89,58890,13.25,73232.8,-8.75,-10.85,-11.07,0,*5D
1487358144.15,58891,13.19,73230.0,-8.73,-10.85,-11.07,0,*5A
1487358145.42,58892,13.19,73230.3,-8.73,-10.85,-11.07,0,*59
1487358146.68,58893,13.19,73228.3,-8.73,-10.79,-10.97,0,*53
1487358147.92,58894,13.19,73232.5,-8.73,-10.85,-10.97,0,*57
1487358149.19,58895,13.19,73230.0,-8.73,-10.85,-11.07,0,*5E
1487358150.48,58896,13.19,73228.5,-8.73,-10.79,-11.07,0,*5E
1487358151.72,58897,13.19,73224.8,-8.73,-10.97,-11.11,0,*58
1487358152.96,58898,13.19,73228.3,-8.71,-10.89,-11.07,0,*5D
1487358154.25,58899,13.19,73220.5,-8.73,-10.79,-11.07,0,*51
1487358155.51,58900,13.19,73222.0,-8.73,-10.71,-10.85,0,*53
1487358156.78,58901,13.19,73220.5,-8.73,-10.71,-10.97,0,*51
1487358158.05,58902,13.19,73210.8,-8.73,-10.93,-11.07,0,*56
1487358159.28,58903,13.19,73228.0,-8.71,-10.79,-11.01,0,*57
1487358160.49,58904,13.19,73224.3,-8.71,-10.89,-11.19,0,*56
1487358161.75,58905,13.19,73222.5,-8.73,-11.23,-11.37,0,*58
1487358162.99,58906,13.19,73224.8,-8.71,-11.15,-11.29,0,*53
1487358164.25,58907,13.19,73228.5,-8.73,-11.07,-11.19,0,*50
1487358165.49,58908,13.19,73226.5,-8.73,-11.11,-11.19,0,*58
1487358166.72,58909,13.19,73230.3,-8.73,-11.11,-11.19,0,*59
1487358167.93,58910,13.19,73232.0,-8.71,-10.89,-10.93,0,*50
1487358169.17,58911,13.19,73234.0,-8.71,-10.89,-10.79,0,*55
1487358170.44,58912,13.19,73228.8,-8.71,-10.75,-10.75,0,*59
1487358171.7,58913,13.19,73226.5,-8.71,-10.75,-10.67,0,*5B
1487358172.98,58914,13.19,73220.8,-8.71,-10.67,-10.67,0,*5F
1487358174.27,58915,13.19,73216.3,-8.73,-10.71,-10.79,0,*54
1487358175.56,58916,13.19,73218.5,-8.73,-10.71,-10.79,0,*57
1487358176.83,58917,13.25,73214.5,-8.73,-10.57,-10.71,0,*5A
1487358178.12,58918,13.19,73222.3,-8.73,-10.67,-10.71,0,*56
1487358179.38,58919,13.25,73230.8,-8.73,-10.57,-10.71,0,*54
1487358180.65,58920,13.19,73224.5,-8.73,-10.67,-10.93,0,*51
1487358181.92,58921,13.19,73238.8,-8.73,-10.71,-10.97,0,*53
1487358183.16,58922,13.19,73234.0,-8.73,-11.11,-11.19,0,*50
1487358184.4,58923,13.19,73226.8,-8.73,-11.23,-11.23,0,*59
1487358185.66,58924,13.19,73228.8,-8.73,-11.11,-11.07,0,*59
1487358186.92,58925,13.19,73230.5,-8.73,-10.79,-10.85,0,*5C
1487358188.22,58926,13.19,73228.5,-8.73,-10.67,-10.79,0,*53
1487358189.51,58927,13.19,73228.3,-8.73,-10.71,-10.79,0,*55
1487358190.78,58928,13.19,73232.0,-8.71,-10.63,-10.75,0,*57
1487358192.04,58929,13.19,73230.0,-8.73,-10.85,-10.79,0,*50
1487358193.3,58930,13.19,73222.3,-8.73,-10.85,-10.79,0,*58
1487358194.59,58931,13.19,73216.8,-8.73,-10.79,-10.71,0,*52
1487358195.86,58932,13.19,73210.3,-8.73,-10.67,-10.57,0,*5A
1487358197.16,58933,13.19,73186.5,-8.73,-10.67,-10.67,0,*58
1487358198.45,58934,13.19,73182.5,-8.73,-10.71,-10.71,0,*5F
1487358199.75,58935,13.19,73210.3,-8.73,-10.67,-10.71,0,*59
1487358200.98,58936,13.19,73210.5,-8.73,-10.53,-10.57,0,*59
1487358202.22,58937,13.19,73232.5,-8.75,-10.53,-10.67,0,*5D
1487358203.45,58938,13.19,73218.0,-8.75,-10.71,-10.85,0,*5E
1487358204.68,58939,13.19,73222.8,-8.75,-10.67,-10.85,0,*58
1487358205.96,58940,13.19,73220.0,-8.77,-10.75,-10.97,0,*54
1487358207.17,58941,13.25,73224.5,-8.75,-10.93,-11.11,0,*50
1487358208.38,58942,13.19,73224.3,-8.75,-10.93,-11.11,0,*53
1487358209.62,58943,13.19,73226.0,-8.75,-10.93,-11.07,0,*55
1487358210.83,58944,13.19,73226.8,-8.75,-10.93,-11.11,0,*55
1487358212.04,58945,13.19,73224.5,-8.75,-10.93,-11.11,0,*54
1487358213.26,58946,13.19,73226.5,-8.75,-10.97,-11.11,0,*53
1487358214.5,58947,13.19,73230.0,-8.75,-10.97,-11.07,0,*55
1487358215.74,58948,13.19,73226.8,-8.75,-10.93,-11.07,0,*5E
1487358216.98,58949,13.19,73226.5,-8.73,-10.93,-10.93,0,*55
1487358218.23,58950,13.19,73222.0,-8.75,-10.97,-11.07,0,*53
1487358219.44,58951,13.19,73224.8,-8.75,-10.93,-10.97,0,*5E
1487358220.69,58952,13.19,73230.0,-8.75,-10.71,-10.97,0,*51
1487358221.92,58953,13.19,73232.8,-8.75,-10.79,-11.11,0,*57
1487358223.16,58954,13.19,73244.3,-8.75,-10.85,-11.07,0,*54
1487358224.42,58955,13.19,73236.5,-8.75,-11.37,-11.63,0,*5F
1487358225.69,58956,13.19,73230.3,-8.77,-11.37,-11.41,0,*5E
1487358226.93,58957,13.19,73226.5,-8.75,-11.07,-11.23,0,*5A
1487358228.14,58958,13.19,73222.0,-8.75,-11.11,-11.19,0,*5B
1487358229.34,58959,13.19,73222.8,-8.75,-11.19,-11.11,0,*5A
1487358230.59,58960,13.19,73212.5,-8.75,-11.07,-10.97,0,*50
1487358231.82,58961,13.19,73204.8,-8.75,-10.79,-10.85,0,*5A
1487358233.08,58962,13.19,73220.3,-8.75,-10.79,-10.79,0,*5A
1487358234.34,58963,13.19,73212.0,-8.75,-10.71,-10.71,0,*5B
1487358235.59,58964,13.19,73214.0,-8.77,-10.89,-10.97,0,*51
1487358236.83,58965,13.19,73218.3,-8.77,-10.89,-11.01,0,*5E
1487358238.07,58966,13.19,73226.5,-8.77,-10.89,-11.11,0,*5C
1487358239.27,58967,13.19,73226.3,-8.75,-10.85,-11.11,0,*53
1487358240.52,58968,13.19,73226.3,-8.77,-10.97,-11.15,0,*59
1487358241.73,58969,13.19,73226.3,-8.75,-10.97,-11.23,0,*5F
1487358242.98,58970,13.19,73230.5,-8.77,-11.01,-11.23,0,*5B
1487358244.19,58971,13.19,73228.5,-8.75,-11.11,-11.19,0,*50
1487358245.42,58972,13.19,73232.5,-8.75,-11.11,-11.07,0,*5C
1487358246.64,58973,13.19,73232.0,-8.75,-10.93,-10.93,0,*5A
1487358247.88,58974,13.19,73230.8,-8.75,-10.93,-10.79,0,*59
1487358249.15,58975,13.19,73224.8,-8.75,-10.79,-10.67,0,*53
1487358250.41,58976,13.19,73222.3,-8.75,-10.67,-10.71,0,*58
1487358251.65,58977,13.19,73222.0,-8.75,-10.57,-10.71,0,*5A
1487358252.89,58978,13.19,73226.8,-8.75,-10.57,-10.79,0,*5D
1487358254.16,58979,13.19,73234.3,-8.77,-10.63,-10.89,0,*56
1487358255.42,58980,13.19,73228.0,-8.75,-10.79,-11.07,0,*5E
1487358256.66,58981,13.19,73230.5,-8.77,-10.85,-11.01,0,*58
1487358257.91,58982,13.19,73232.3,-8.77,-10.97,-10.89,0,*59
1487358259.12,58983,13.19,73232.8,-8.75,-11.11,-10.93,0,*5E
1487358260.36,58984,13.19,73226.5,-8.75,-10.93,-10.67,0,*59
1487358261.6,58985,13.25,73226.0,-8.75,-10.79,-10.53,0,*5B
1487358262.84,58986,13.19,73226.5,-8.75,-10.71,-10.57,0,*54
1487358264.05,58987,13.19,73220.5,-8.75,-10.53,-10.57,0,*55
1487358265.26,58988,13.19,73208.5,-8.75,-10.57,-10.57,0,*5E
1487358266.5,58989,13.19,73204.8,-8.75,-10.41,-10.49,0,*57
1487358267.77,58990,13.19,73200.5,-8.75,-10.41,-10.41,0,*57
1487358268.98,58991,13.19,73210.5,-8.75,-10.49,-10.53,0,*5D
1487358270.22,58992,13.19,73216.3,-8.75,-10.41,-10.49,0,*5D
1487358271.48,58993,13.19,73220.5,-8.73,-10.41,-10.49,0,*5A
1487358272.75,58994,13.19,73224.3,-8.73,-10.41,-10.53,0,*56
1487358273.98,58995,13.19,73232.3,-8.75,-10.57,-10.71,0,*56
1487358275.21,58996,13.19,73234.0,-8.75,-10.53,-10.71,0,*51
1487358276.45,58997,13.19,73230.3,-8.75,-10.53,-10.79,0,*58
1487358277.68,58998,13.19,73232.8,-8.73,-10.57,-10.85,0,*56
1487358278.95,58999,13.19,73234.8,-8.73,-10.71,-10.97,0,*50
1487358280.21,59000,13.19,73240.3,-8.73,-10.79,-10.93,0,*54
1487358281.5,59001,13.19,73228.0,-8.73,-10.79,-10.79,0,*51
1487358282.76,59002,13.19,73230.0,-8.73,-10.79,-10.57,0,*5E
1487358284.01,59003,13.19,73226.3,-8.75,-10.67,-10.57,0,*56
1487358285.27,59004,13.19,73214.0,-8.75,-10.79,-10.71,0,*5A
1487358286.57,59005,13.19,73200.0,-8.73,-10.71,-10.67,0,*52
1487358287.77,59006,13.19,73204.3,-8.75,-10.53,-10.53,0,*50
1487358289.01,59007,13.19,73218.3,-8.75,-10.41,-10.49,0,*59
1487358290.25,59008,13.19,73216.5,-8.75,-10.41,-10.49,0,*56
1487358291.49,59009,13.19,73218.0,-8.75,-10.41,-10.49,0,*57
1487358292.76,59010,13.19,73226.0,-8.73,-10.57,-10.67,0,*52
1487358294.02,59011,13.19,73222.3,-8.73,-10.53,-10.71,0,*50
1487358295.25,59012,13.19,73220.5,-8.75,-10.57,-10.79,0,*59
1487358296.51,59013,13.19,73232.8,-8.73,-10.53,-10.71,0,*52
1487358297.75,59014,13.19,73232.3,-8.75,-10.57,-10.79,0,*5F
1487358298.98,59015,13.19,73230.0,-8.75,-10.79,-10.85,0,*51
1487358300.24,59016,13.19,73230.0,-8.75,-10.79,-10.79,0,*51
1487358301.51,59017,13.19,73230.3,-8.75,-10.71,-10.67,0,*57
1487358302.8,59018,13.19,73224.3,-8.73,-10.79,-10.71,0,*51
1487358304.09,59019,13.19,73224.3,-8.73,-10.79,-10.71,0,*50
1487358305.38,59020,13.19,73220.8,-8.73,-10.71,-10.79,0,*5A
1487358306.68,59021,13.19,73218.0,-8.73,-10.67,-10.67,0,*53
1487358307.98,59022,13.19,73218.8,-8.73,-10.67,-10.67,0,*50
1487358309.27,59023,13.19,73216.8,-8.73,-10.71,-10.71,0,*51
1487358310.54,59024,13.19,73208.3,-8.73,-10.79,-10.93,0,*52
1487358311.78,59025,13.19,73236.5,-8.73,-10.93,-10.97,0,*53
1487358313.02,59026,13.19,73228.3,-8.73,-11.11,-11.19,0,*5C
1487358314.31,59027,13.19,73228.3,-8.73,-11.07,-11.07,0,*55
1487358315.58,59028,13.19,73226.3,-8.73,-10.97,-11.07,0,*52
1487358316.83,59029,13.19,73224.8,-8.73,-10.97,-10.97,0,*5B
1487358318.06,59030,13.19,73236.3,-8.73,-10.85,-10.93,0,*54
1487358319.3,59031,13.19,73228.3,-8.73,-11.11,-11.19,0,*5A
1487358320.56,59032,13.19,73230.0,-8.73,-11.07,-11.11,0,*56
1487358321.8,59033,13.19,73230.3,-8.73,-10.93,-11.11,0,*5B
1487358323.05,59034,13.19,73230.5,-8.73,-10.97,-10.97,0,*57
1487358324.32,59035,13.19,73228.3,-8.73,-10.97,-11.07,0,*5E
1487358325.54,59036,13.19,73220.0,-8.75,-10.97,-10.93,0,*57
1487358326.75,59037,13.19,73226.5,-8.75,-10.93,-10.85,0,*55
1487358328.01,59038,13.19,73218.8,-8.75,-10.79,-10.79,0,*5D
1487358329.28,59039,13.19,73204.8,-8.75,-10.71,-10.67,0,*5B
1487358330.54,59040,13.19,73216.0,-8.75,-10.71,-10.79,0,*5A
1487358331.79,59041,13.19,73224.8,-8.75,-10.57,-10.67,0,*50
1487358333.08,59042,13.19,73224.5,-8.77,-10.63,-10.75,0,*55
1487358334.33,59043,13.19,73230.8,-8.75,-10.67,-10.93,0,*5A
1487358335.54,59044,13.19,73236.0,-8.75,-10.97,-11.11,0,*59
1487358336.78,59045,13.19,73238.3,-8.75,-10.79,-10.93,0,*53
1487358338.02,59046,13.19,73234.8,-8.75,-10.79,-10.93,0,*50
1487358339.26,59047,13.19,73240.5,-8.77,-10.89,-11.01,0,*56
1487358340.47,59048,13.19,73238.5,-8.75,-11.11,-11.11,0,*5A
1487358341.71,59049,13.19,73228.3,-8.75,-10.97,-11.07,0,*53
1487358342.92,59050,13.19,73216.5,-8.75,-11.19,-11.19,0,*53
1487358344.16,59051,13.19,73210.8,-8.75,-11.07,-10.97,0,*5A
1487358345.39,59052,13.19,73200.8,-8.75,-10.85,-10.79,0,*52
1487358346.63,59053,13.19,73208.5,-8.75,-10.85,-10.79,0,*53
1487358347.93,59054,13.19,73240.0,-8.77,-10.63,-10.75,0,*52
1487358349.17,59055,13.19,73234.0,-8.75,-10.79,-10.97,0,*56
1487358350.38,59056,13.19,73232.3,-8.75,-10.85,-10.93,0,*52
1487358351.62,59057,13.19,73230.0,-8.77,-11.01,-11.15,0,*53
1487358352.83,59058,13.19,73222.5,-8.75,-11.19,-11.23,0,*52
1487358354.07,59059,13.19,73218.0,-8.75,-11.07,-11.19,0,*55
1487358355.31,59060,13.19,73212.0,-8.77,-11.15,-11.23,0,*57
1487358356.55,59061,13.19,73214.3,-8.77,-11.01,-11.15,0,*56
1487358357.79,59062,13.19,73220.8,-8.75,-10.85,-11.07,0,*59
1487358359.0,59063,13.19,73232.5,-8.75,-10.93,-11.11,0,*58
1487358360.24,59064,13.19,73220.8,-8.75,-11.07,-11.19,0,*5B
1487358361.48,59065,13.19,73228.0,-8.77,-11.15,-11.23,0,*52
1487358362.72,59066,13.19,73228.5,-8.77,-11.11,-11.15,0,*50
1487358363.98,59067,13.19,73224.8,-8.77,-11.23,-11.29,0,*5F
1487358365.22,59068,13.19,73228.5,-8.77,-11.15,-11.23,0,*5F
1487358366.47,59069,13.19,73232.3,-8.77,-11.23,-11.23,0,*5B
1487358367.71,59070,13.19,73234.3,-8.77,-11.11,-11.01,0,*52
1487358368.95,59071,13.19,73236.5,-8.77,-11.01,-10.85,0,*5F
1487358370.19,59072,13.19,73232.0,-8.75,-10.79,-10.57,0,*5F
1487358371.39,59073,13.19,73220.3,-8.75,-10.53,-10.57,0,*56
1487358372.6,59074,13.19,73224.0,-8.75,-10.53,-10.49,0,*5E
1487358373.84,59075,13.19,73218.8,-8.77,-10.57,-10.53,0,*52
1487358375.08,59076,13.19,73220.0,-8.75,-10.49,-10.41,0,*5F
1487358376.29,59077,13.19,73218.3,-8.75,-10.57,-10.53,0,*52
1487358377.53,59078,13.19,73220.5,-8.73,-10.53,-10.53,0,*5F
1487358378.74,59079,13.19,73224.3,-8.75,-10.49,-10.53,0,*53
1487358379.95,59080,13.19,73232.8,-8.75,-10.49,-10.57,0,*51
1487358381.18,59081,13.19,73236.3,-8.75,-10.53,-10.71,0,*5F
1487358382.44,59082,13.19,73232.0,-8.75,-10.63,-10.79,0,*57
1487358383.71,59083,13.19,73224.3,-8.75,-10.67,-10.79,0,*52
1487358384.98,59084,13.19,73220.8,-8.75,-10.71,-10.79,0,*52
1487358386.24,59085,13.19,73212.5,-8.75,-10.71,-10.71,0,*5B
1487358387.51,59086,13.19,73210.8,-8.75,-10.71,-10.67,0,*5F
1487358388.78,59087,13.19,73214.0,-8.75,-10.71,-10.67,0,*5E
1487358390.05,59088,13.19,73232.3,-8.75,-10.67,-10.71,0,*51
1487358391.26,59089,13.19,73238.3,-8.75,-10.53,-10.53,0,*57
1487358392.47,59090,13.19,73230.0,-8.75,-10.57,-10.57,0,*5F
1487358393.7,59091,13.19,73228.3,-8.75,-10.71,-10.85,0,*55
1487358394.94,59092,13.19,73226.5,-8.75,-10.97,-11.07,0,*55
1487358396.18,59093,13.19,73226.5,-8.75,-10.71,-10.85,0,*57
1487358397.41,59094,13.19,73232.0,-8.75,-10.67,-10.85,0,*57
1487358398.65,59095,13.19,73232.8,-8.75,-10.71,-10.85,0,*51
1487358399.88,59096,13.19,73230.5,-8.75,-10.79,-10.93,0,*5D
1487358401.11,59097,13.19,73236.0,-8.75,-10.79,-10.85,0,*5B
1487358402.32,59098,13.19,73242.5,-8.75,-10.85,-10.85,0,*57
1487358403.55,59099,13.19,73240.5,-8.75,-10.85,-10.79,0,*55
1487358404.8,59100,13.19,73240.5,-8.77,-11.23,-11.01,0,*55
1487358406.04,59101,13.19,73238.5,-8.75,-11.23,-11.07,0,*50
1487358407.28,59102,13.19,73234.8,-8.77,-10.97,-10.85,0,*54
1487358408.51,59103,13.19,73228.8,-8.75,-10.85,-10.71,0,*5F
1487358409.75,59104,13.19,73220.0,-8.77,-10.97,-10.85,0,*52
1487358411.0,59105,13.19,73220.0,-8.77,-11.01,-11.01,0,*50
1487358412.23,59106,13.19,73202.3,-8.77,-10.85,-10.85,0,*53
1487358413.53,59107,13.19,73198.8,-8.77,-10.63,-10.63,0,*52
1487358414.83,59108,13.19,73190.8,-8.77,-10.63,-10.63,0,*5D
1487358416.04,59109,13.19,73190.3,-8.75,-10.53,-10.53,0,*5E
1487358417.28,59110,13.19,73198.8,-8.77,-10.57,-10.57,0,*54
1487358418.55,59111,13.19,73220.5,-8.77,-10.57,-10.63,0,*52
1487358419.82,59112,13.19,73222.5,-8.77,-10.57,-10.63,0,*51
1487358421.09,59113,13.19,73214.8,-8.77,-10.57,-10.63,0,*50
1487358422.38,59114,13.19,73212.0,-8.81,-10.63,-10.75,0,*5E
1487358423.68,59115,13.19,73208.8,-8.77,-10.63,-10.75,0,*56
1487358424.95,59116,13.19,73216.0,-8.77,-10.75,-10.89,0,*51
1487358426.21,59117,13.19,73230.0,-8.77,-10.75,-11.01,0,*51
1487358427.46,59118,13.19,73226.8,-8.77,-11.01,-11.23,0,*5C
1487358428.75,59119,13.19,73224.0,-8.77,-11.07,-11.29,0,*51
1487358430.02,59120,13.19,73230.0,-8.81,-11.01,-11.07,0,*58
1487358431.26,59121,13.19,73230.5,-8.81,-10.93,-11.01,0,*55
1487358432.5,59122,13.19,73228.3,-8.81,-10.93,-11.01,0,*56
1487358433.73,59123,13.19,73234.8,-8.81,-10.93,-10.93,0,*5D
1487358434.98,59124,13.19,73232.0,-8.81,-11.01,-11.01,0,*5A
1487358436.22,59125,13.19,73232.0,-8.77,-10.97,-11.01,0,*5C
1487358437.46,59126,13.19,73234.8,-8.81,-10.89,-10.89,0,*58
1487358438.67,59127,13.19,73234.8,-8.83,-10.93,-10.89,0,*50
1487358439.91,59128,13.19,73232.0,-8.81,-10.93,-10.93,0,*56
1487358441.16,59129,13.19,73226.3,-8.77,-10.97,-10.89,0,*51
1487358442.4,59130,13.19,73228.5,-8.77,-11.01,-10.89,0,*57
1487358443.67,59131,13.19,73230.5,-8.77,-10.89,-10.75,0,*54
1487358444.92,59132,13.19,73224.5,-8.77,-11.01,-10.97,0,*5A
1487358446.16,59133,13.19,73202.3,-8.77,-10.89,-10.97,0,*5A
1487358447.43,59134,13.19,73216.3,-8.81,-10.93,-10.79,0,*5F
1487358448.69,59135,13.19,73212.5,-8.81,-10.89,-10.79,0,*55
1487358449.93,59136,13.19,73208.8,-8.81,-10.89,-10.89,0,*59
1487358451.17,59137,13.19,73226.3,-8.77,-11.15,-11.01,0,*54
1487358452.44,59138,13.19,73228.8,-8.77,-11.29,-11.23,0,*54
1487358453.73,59139,13.19,73226.0,-8.81,-11.07,-11.07,0,*56
1487358455.0,59140,13.19,73230.3,-8.81,-11.01,-11.07,0,*5E
1487358456.26,59141,13.19,73238.0,-8.81,-11.15,-11.07,0,*5A
1487358457.52,59142,13.19,73224.5,-8.81,-11.33,-11.19,0,*52
1487358458.76,59143,13.19,73218.0,-8.81,-11.01,-10.89,0,*5A
1487358460.02,59144,13.19,73210.3,-8.81,-10.93,-10.79,0,*58
1487358461.31,59145,13.19,73202.5,-8.81,-10.79,-10.75,0,*51
1487358462.61,59146,13.19,73210.5,-8.81,-10.67,-10.63,0,*5A
1487358463.91,59147,13.19,73214.3,-8.81,-10.67,-10.67,0,*5F
1487358465.2,59148,13.19,73214.8,-8.81,-10.67,-10.67,0,*50
1487358466.5,59149,13.19,73222.5,-8.81,-10.67,-10.75,0,*52
1487358467.74,59150,13.19,73238.5,-8.77,-10.57,-10.85,0,*5F
1487358469.0,59151,13.19,73238.5,-8.81,-10.89,-11.07,0,*5F
1487358470.23,59152,13.19,73238.8,-8.81,-10.93,-11.01,0,*51
1487358471.45,59153,13.19,73238.3,-8.83,-10.93,-11.01,0,*52
1487358472.69,59154,13.19,73244.3,-8.81,-10.93,-11.01,0,*57
1487358473.93,59155,13.19,73244.8,-8.81,-10.93,-11.01,0,*56
1487358475.19,59156,13.19,73238.3,-8.81,-11.19,-11.07,0,*50
1487358476.42,59157,13.19,73232.0,-8.81,-11.15,-11.01,0,*5B
1487358477.7,59158,13.19,73234.8,-8.77,-10.97,-10.75,0,*54
1487358478.93,59159,13.19,73228.0,-8.81,-11.15,-10.93,0,*5F
1487358480.17,59160,13.19,73212.0,-8.81,-11.01,-10.89,0,*5B
1487358481.43,59161,13.19,73220.8,-8.81,-10.89,-10.75,0,*58
1487358482.7,59162,13.19,73234.8,-8.77,-10.71,-10.57,0,*55
1487358483.97,59163,13.19,73226.3,-8.81,-10.63,-10.57,0,*5E
1487358485.21,59164,13.19,73222.3,-8.81,-10.57,-10.49,0,*51
1487358486.47,59165,13.19,73206.5,-8.81,-10.63,-10.57,0,*58
1487358487.74,59166,13.19,73194.0,-8.81,-10.63,-10.49,0,*54
1487358489.03,59167,13.19,73192.8,-8.81,-10.63,-10.67,0,*59
1487358490.27,59168,13.19,73208.5,-8.81,-10.57,-10.57,0,*52
1487358491.51,59169,13.19,73210.0,-8.81,-10.49,-10.49,0,*53
1487358492.77,59170,13.19,73230.8,-8.81,-10.57,-10.67,0,*58
1487358494.04,59171,13.19,73232.0,-8.81,-10.57,-10.67,0,*59
1487358495.3,59172,13.19,73230.3,-8.81,-10.79,-11.01,0,*57
1487358496.56,59173,13.19,73232.5,-8.81,-11.07,-11.15,0,*5B
1487358497.83,59174,13.19,73230.3,-8.81,-11.07,-10.93,0,*53